Location: Bailleul
(50.3375°N, 2.8513°E)
Time: 05:05:54
(UTC+00:00)

Cosmos 1850 Rocket - Pass Details

Date: 19 April 2021
Orbit: 753 x 786 km, 74.0° (Epoch: 09 May)

Event Time Altitude Azimuth Distance (km) Brightness Sun altitude
Exits shadow 22:17:42 68° 100° (E) 820 3.9 -25.1°
Drops below altitude 10° 22:22:48 10° 28° (NNE) 2,316 6.9 -25.4°
Sets 22:25:12 0° 26° (NNE) 3,252 7.8 -25.6°
